Regional Weather Roundup
Issued by NWS Green Bay, WI

Home | Current Version | Previous Version | Text Only | Print | Product List | Glossary On
Versions: 1 2 3 4 5 6 7 8 9 10 11 12 13 14 15 16 17 18 19 20 21 22 23 24 25 26 27 28 29 30 31 32 33 34 35 36 37 38 39 40 41 42 43 44 45 46 47 48 49 50
000
ASUS43 KGRB 260410
RWRGRB

NORTH-CENTRAL AND NORTHEAST WISCONSIN REGIONAL WEATHER ROUNDUP
NATIONAL WEATHER SERVICE GREEN BAY WI
1000 PM CST TUE NOV 25 2014

WIZ005-009-010>012-018-019-260500-
NORTH CENTRAL WISCONSIN

CITY           SKY/WX    TMP DP  RH WIND       PRES   REMARKS
IRONWOOD       PTCLDY     7   7 100 CALM      30.03R
MANITOWISH WTR MOCLDY     1  -2  87 CALM      30.05R
ARBOR VITAE    CLEAR      5   2  86 CALM      30.04R
EAGLE RIVER    CLEAR      2  -3  80 CALM      30.05R
LAND O LAKES   CLEAR     -5  -9  83 CALM      30.06R
RHINELANDER    CLEAR      2  -2  83 CALM      30.05R
PHILLIPS       CLOUDY    13  11  92 CALM      30.04R
ANTIGO         PTCLDY    -6  -9  86 CALM      30.08R
TOMAHAWK       PTCLDY     0  -3  87 CALM      30.06R
MERRILL        PTCLDY     5   2  88 CALM      30.07R
$$

WIZ013-073-260500-
NORTHEAST WISCONSIN

CITY           SKY/WX    TMP DP  RH WIND       PRES   REMARKS
IRON MOUNTAIN  CLEAR      3  -1  83 CALM      30.08R
MARINETTE      CLOUDY    18  12  79 W5        30.14R
OCONTO         CLOUDY    19  17  91 CALM      30.15R
$$

WIZ017-030-035>037-045-260500-
CENTRAL WISCONSIN

CITY           SKY/WX    TMP DP  RH WIND       PRES   REMARKS
MEDFORD        CLOUDY    19  15  84 S3        30.05R
WAUSAU         PTCLDY    11   8  88 E5        30.08R WCI   3
MOSINEE        PTCLDY    12  12 100 CALM      30.09R
MARSHFIELD     CLOUDY    21  15  78 SW7       30.07R
WISC RAPIDS    CLOUDY    18  14  84 CALM      30.12R
STEVENS POINT  PTCLDY     3   0  88 CALM      30.11R
WAUPACA        CLEAR     12   8  84 CALM      30.13S FOG
SHAWANO        CLEAR     16  13  89 CALM      30.14R
CLINTONVILLE   CLEAR     10   9  92 CALM      30.13R FOG
$$

WIZ038-039-048-051-260500-
FOX VALLEY

CITY           SKY/WX    TMP DP  RH WIND       PRES   REMARKS
NWS GREEN BAY  CLOUDY    18  14  84 SW3       30.15S
APPLETON       CLEAR     16  14  93 CALM      30.13R
OSHKOSH        CLEAR     15  12  88 S3        30.14R
FOND DU LAC    CLEAR     16  13  88 S6        30.14R WCI   7
$$

WIZ022-050-052-260500-
EAST CENTRAL WISCONSIN

CITY           SKY/WX    TMP DP  RH WIND       PRES   REMARKS
STURGEON BAY   CLOUDY    21  14  73 SW6       30.15R
MANITOWOC      CLOUDY    21  17  84 S5        30.17R
SHEBOYGAN      CLOUDY    20  15  81 SW5       30.16R
$$

LMZ563-521-522-541>543-260500-
LAKESHORE

STATION/POSITION TIME  TEMP    WIND        PRES    VSBY  WAVE
                       AIR SEA DIR/SP/G                  HT/PER
                 (UTC) (F)     (DEG/KT/KT) (MB)    (MI)  (FT/S)
SHEBOYGAN LKSHOR 0400   21 36  260/  6/  7 1022.9R
KEWAUNEE LKSHORE 0400   21     250/  2/  6 1020.3R
ALGOMA MARINA    0300          260/  7/ 10   N/A
NORTHPORT PIER   0400   25     220/  3/  7 1020.7R
N MID LAKE BUOY  0400   28 42  230/  4/  8 1021.2R         1/ 5
CHAMBERS ISLAND  0400   23     220/  6/ 10 1020.7S
MENOMINEE LKSHOR 0400   20     220/  7/  9 1021.4R
$$


USA.gov is the U.S. government's official web portal to all federal, state and local government web resources and services.